Regional Weather Roundup
Issued by NWS

Home | Current Version | Previous Version | Graphics & Text | Print | Product List | Glossary On
Versions: 1 2 3 4 5 6 7 8 9 10 11 12 13 14 15 16 17 18 19 20 21 22 23 24 25 26 27 28 29 30 31 32 33 34 35 36 37 38 39 40 41 42 43 44 45 46 47 48 49 50
000
ASUS43 KLMK 240810
RWRKY
KENTUCKY REGIONAL WEATHER ROUNDUP
NATIONAL WEATHER SERVICE LOUISVILLE KY
400 AM EDT SUN SEP 24 2017

NOTE "FAIR" INDICATES FEW OR NO CLOUDS BELOW 12,000 FEET
WITH NO SIGNIFICANT WEATHER AND/OR OBSTRUCTIONS TO VISIBILITY.

KYZ001>023-026-027-061>063-070>075-240900-
WESTERN AND SOUTH CENTRAL KENTUCKY

CITY           SKY/WX    TMP DP  RH WIND       PRES   REMARKS
PADUCAH        CLEAR     68  65  90 CALM      30.00S
HENDERSON      CLEAR     63  62  97 CALM      30.04S FOG
OWENSBORO      CLEAR     68  66  93 CALM      30.04S
HOPKINSVILLE   NOT AVBL
BOWLING GREEN  PTCLDY    67  67 100 CALM      30.04R FOG
GLASGOW        CLEAR     64  64 100 N3        30.04R
$$

KYZ024-025-028>034-038-045-046-053-240900-
NORTH CENTRAL KENTUCKY

CITY           SKY/WX    TMP DP  RH WIND       PRES   REMARKS
LOUISVILLE/SDF CLEAR     71  67  87 CALM      30.05S
LOUISVILLE/LOU CLEAR     66  66 100 CALM      30.06S FOG
FORT KNOX      CLEAR     66  63  88 NE6       30.04S
$$

KYZ035>037-039>044-047>052-055>060-089>105-240900-
NORTHEAST KENTUCKY

CITY           SKY/WX    TMP DP  RH WIND       PRES   REMARKS
LEXINGTON      CLEAR     67  61  81 NE3       30.08S
COVINGTON      CLEAR     71  64  78 NE5       30.09R
FRANKFORT      CLEAR     63  60  90 CALM      30.06S
$$

KYZ054-064>069-076>088-106>120-240900-
SOUTHEAST KENTUCKY

CITY           SKY/WX    TMP DP  RH WIND       PRES   REMARKS
JACKSON        CLEAR     68  62  81 E3        30.10S
LONDON         CLEAR     64  61  90 NE3       30.08S
SOMERSET       CLEAR     61  61 100 CALM      30.08S
MIDDLESBORO    CLEAR     63  63 100 CALM      30.10R
MONTICELLO     SUNNY     62  61  96 W7        30.08S FOG
$$





USA.gov is the U.S. government's official web portal to all federal, state and local government web resources and services.